This is the latest recevied weather packets stored in our database for station/object AE0NK. If no packets are shown the sender has not sent any weather packets the latest 10 day(s).
| Time | Temp. | Humidity | Pressure | Rain* | Wind** | Luminosity | Snow |
|---|---|---|---|---|---|---|---|
| 1777991604 | 10.56° C | 44% | 1010.8 hPa | 0 mm | - | 209 W/m² | - |
| 1777991303 | 10.56° C | 48% | 1010.7 hPa | 0 mm | - | 251 W/m² | - |
| 1777990999 | 10.56° C | 48% | 1010.6 hPa | 0 mm | - | 239 W/m² | - |
| 1777990718 | 10.56° C | 46% | 1010.5 hPa | 0 mm | - | 327 W/m² | - |
| 1777990410 | 10.56° C | 50% | 1010.4 hPa | 0 mm | - | 220 W/m² | - |
| 1777989805 | 10.56° C | 48% | 1010.3 hPa | 0 mm | - | 341 W/m² | - |
| 1777989502 | 10° C | 45% | 1010.2 hPa | 0 mm | - | 332 W/m² | - |
| 1777989201 | 10° C | 48% | 1010.2 hPa | 0 mm | - | 271 W/m² | - |
| 1777988900 | 10° C | 52% | 1010.1 hPa | 0 mm | - | 269 W/m² | - |
| 1777988596 | 10° C | 57% | 1010.1 hPa | 0 mm | - | 269 W/m² | - |
| 1777988294 | 10° C | 54% | 1010.2 hPa | 0 mm | - | 244 W/m² | - |
| 1777987993 | 10° C | 57% | 1010.2 hPa | 0 mm | - | 156 W/m² | - |
| 1777987692 | 9.44° C | 56% | 1010.2 hPa | 0 mm | - | 174 W/m² | - |
| 1777987408 | 9.44° C | 58% | 1010.4 hPa | 0 mm | - | 171 W/m² | - |
| 1777987104 | 9.44° C | 59% | 1010.6 hPa | 0 mm | - | 155 W/m² | - |
| 1777986800 | 8.89° C | 58% | 1010.8 hPa | 0 mm | - | 137 W/m² | - |
| 1777986497 | 8.89° C | 57% | 1010.9 hPa | 0 mm | - | 100 W/m² | - |
| 1777986196 | 8.89° C | 60% | 1010.9 hPa | 0 mm | - | 120 W/m² | - |
| 1777985910 | 8.89° C | 60% | 1010.9 hPa | 0 mm | - | 100 W/m² | - |
| 1777985609 | 8.89° C | 59% | 1011 hPa | 0 mm | - | 63 W/m² | - |
| 1777985305 | 8.33° C | 60% | 1011.1 hPa | 0 mm | - | 77 W/m² | - |
| 1777985004 | 8.33° C | 59% | 1011.1 hPa | 0 mm | - | 47 W/m² | - |
| 1777984703 | 8.33° C | 60% | 1011.2 hPa | 0 mm | - | 40 W/m² | - |
| 1777984100 | 8.33° C | 59% | 1011.2 hPa | 0 mm | - | 76 W/m² | - |
| 1777983796 | 8.33° C | 62% | 1011.1 hPa | 0 mm | - | 88 W/m² | - |
* Rain latest hour (hover to see other rain measurements)
** Current wind speed in m/s (hover to see current wind gust speed)